Погода в Морпете

Великобритания     55°10′02″N   1°41′25″W
темп.,
°C
ветер,
м/с
пор.,
м/с
влажн.,
%
обл.,
%
осадки,
мм/ч
давл.,
гПа
погр.,
м
24 октября, вс
вс2401:00+9ю61375100 0.0 1014475
04:00+9ю71475100 0.0 1011626
07:00+11ю81575100 0.0 1010817
10:00+12ю71578100 0.0 1010973
13:00+14ююз8137576 0.0 10091107
16:00+13ююз7137442 0.0 10081138
19:00+12ююз6127815 0.1 1007831
22:00+11ююз613808 0.0 1007615
25 октября, пн
пн2501:00+12юз6137620 0.0 1006847
04:00+9юз6128518 0.0 1006581
07:00+10юз6117494 0.0 1007809
10:00+9юз51180100 0.0 10081009
13:00+11зюз61171100 0.0 10081107
16:00+10зюз7117514 0.0 10081021
19:00+8зюз51284100 0.0 1010477
22:00+8юз4128698 0.0 1010473
26 октября, вт
вт2601:00+6юз399219 0.0 1011216
04:00+7юз31093100 0.0 1011288
07:00+9юз41085100 0.0 1010440
10:00+10ююз51185100 0.3 1010620
13:00+12юз71585100 0.6 1008902
16:00+14юз81482100 0.0 1008909
19:00+13юз81785100 0.0 1008666
22:00+14юз111978100 0.0 1007776
27 октября, ср
ср2701:00+15юз101779100 0.0 10071230
04:00+15юз91781100 0.1 10061087
07:00+15ююз81683100 0.1 10051081
10:00+15ююз112177100 0.1 10051206
13:00+15юз112082100 0.3 10041186
16:00+15юз7148783 0.6 1005944
19:00+13ююз4990100 1.2 1006332
22:00+12юз3992100 0.1 1005319
28 октября, чт
чт2801:00+12ю4896100 1.4 1003284
04:00+13юз3119398 2.1 1002581
07:00+12ю2295100 2.1 100245
10:00+12ю1195100 3.6 100233
13:00+12ююз1393100 4.8 1001150
16:00+13ю2388100 0.1 1000336
19:00+11юв1199100 1.2 99848
22:00+10ю3596100 0.0 996123